{"data":{"norad_id":66933,"intl_designator":"2025-286J","name":"STARLINK-36157","alt_names":[],"object_type":"PAYLOAD","status":"ACTIVE","operator":null,"country":"US","launch_date":"2025-12-07","launch_site_code":"AFWTR","launch_vehicle":null,"mission":null,"orbit_class":"UNKNOWN","rcs_meters":null,"size_class":null,"mass_kg":null,"dimensions":null,"purposes":["comms"],"wikipedia_slug":null,"has_3d_model":false,"image_url":null,"decayed_at":null,"tle_current":{"epoch":"2026-09-20T03:53:41.023968Z","epoch_age_seconds":113081,"freshness":"FRESH","line1":"1 66933U 25286J   26263.16228037  .00020719  00000+0  62252-3 0  9996","line2":"2 66933  53.1573 171.4431 0001159  88.0909 272.0226 15.34406233 45241","mean_motion":15.34406233,"eccentricity":0.0001159,"inclination_deg":53.1573,"raan_deg":171.4431,"arg_perigee_deg":88.0909,"mean_anomaly_deg":272.0226,"bstar":0.00062252,"rev_number":4524,"period_min":93.847376856947,"perigee_km":461.89186324356,"apogee_km":463.47756571698,"semimajor_km":6840.8217144803,"source":"CELESTRAK","updated_at":"2026-09-21T09:00:36.057258Z"}}}